[[{"header":{"parameterUnit":"m.s-1","parameterCategory":1,"la1":30.2992,"la2":30.254,"lo1":-89.0895,"lo2":-89.0443,"dy":0.0025,"dx":0.0025,"nx":19,"ny":19,"refTime":"2026-04-29T21:00:00:Z","depth":0,"parameterNumber":2,"parameterNumberName":"U-component_of_WINDS"},"data":[0,0,0,0.6075,0.6074,0.6076,0.6076,0.6067,0.6067,0,0,0,0,0,0,0,0,0,0,0,0.6068,0.6068,0.6075,0.6074,0.6076,0.6076,0.6067,0.6067,0,0,0,0,0,0,0,0,0,0,0,0.6068,0.6068,0.6068,0.6074,0.6076,0.6076,0.6067,0.607,0,0,0,0,0,0,0,0,0,0,0.607,0.6059,0.6068,0.6068,0.6074,0.6076,0.6076,0.607,0.607,0.6062,0,0.6055,0,0.6061,0.6066,0.6066,0,0,0,0.6079,0.6059,0.6065,0.6068,0.6074,0.6076,0.6076,0.607,0.607,0.6062,0.6055,0.6055,0.6061,0.6066,0.6066,0.6011,0.6011,0,0,0.6079,0.6065,0.6065,0.6064,0.6064,0.6076,0.6076,0.607,0.6061,0.6055,0.6055,0.606,0.6066,0.6066,0.6011,0.6011,0,0,0,0.6075,0.6065,0.6071,0.6064,0.6065,0.6076,0.6076,0.6061,0.6065,0.6055,0.606,0.6066,0.6065,0.6012,0.6011,0.5976,0,0,0,0.6076,0.6063,0.6071,0.6063,0.6065,0.6063,0.6068,0.6065,0.6065,0.606,0.6066,0.6065,0.6013,0.6012,0.5978,0.5962,0,0,0,0.607,0.6063,0.6061,0.6062,0.6062,0.6064,0.6067,0.6065,0.6068,0.6066,0.6065,0.6013,0.6012,0.598,0.5965,0.5944,0,0,0,0.606,0.6029,0.606,0.6028,0.6062,0.6042,0.6067,0.6053,0.6047,0.6066,0.6012,0.6011,0.5981,0.5967,0.5946,0.5924,0.5914,0,0,0.6013,0.6023,0.6005,0.6033,0.6004,0.6043,0.601,0.6016,0.6028,0.6016,0.6015,0.5978,0.5965,0.5944,0.586,0.5852,0,0,0,0.5985,0.5972,0.5968,0.5962,0.5967,0.597,0.5983,0.5986,0.5977,0.6019,0.5965,0.5958,0.5946,0.5936,0.5929,0.592,0.6006,0.6006,0.6006,0.5899,0.5917,0.5889,0.5906,0.59,0.5915,0.5912,0.5918,0.5936,0.5923,0.592,0.5867,0.5855,0.5849,0.584,0.591,0.591,0.5909,0.5909,0.5833,0.5817,0.5844,0.5826,0.5844,0.5829,0.5842,0.5856,0.5845,0.587,0.5861,0.5888,0.584,0.5832,0.5907,0.5907,0.5908,0.5908,0.5908,0.5778,0.5774,0.5778,0.5772,0.5766,0.5785,0.5773,0.579,0.5806,0.5797,0.5795,0.5796,0.5799,0.5795,0.5795,0.5794,0.5794,0.5794,0.5794,0.572,0.5726,0.5714,0.5718,0.5717,0.5718,0.5733,0.5732,0.5736,0.5749,0.5749,0.5769,0.5832,0.5847,0.5791,0.5792,0.5792,0.5792,0.5792,0.5645,0.5665,0.5647,0.5646,0.5652,0.5645,0.5667,0.5664,0.5666,0.566,0.5682,0.5726,0.5737,0.5742,0.5755,0.5679,0.5679,0.5679,0.5679,0.5599,0.5607,0.5593,0.559,0.559,0.5609,0.5587,0.5599,0.5614,0.5617,0.563,0.5649,0.5654,0.5662,0.5669,0.5681,0.5588,0.5588,0.5588,0.5555,0.5563,0.5542,0.5558,0.5564,0.5569,0.555,0.5546,0.5567,0.5584,0.5619,0.5623,0.5653,0.5662,0.5679,0.5691,0.5714,0,0]},{"header":{"parameterUnit":"m.s-1","parameterCategory":1,"la1":30.2992,"la2":30.254,"lo1":-89.0895,"lo2":-89.0443,"dy":0.0025,"dx":0.0025,"nx":19,"ny":19,"refTime":"2026-04-29T21:00:00:Z","depth":0,"parameterNumber":3,"parameterNumberName":"V-component_of_WINDS"},"data":[0,0,0,3.2342,3.2343,3.2415,3.2415,3.2493,3.2494,0,0,0,0,0,0,0,0,0,0,0,3.2313,3.2314,3.2342,3.2343,3.2415,3.2415,3.2493,3.2494,0,0,0,0,0,0,0,0,0,0,0,3.2313,3.2313,3.2314,3.2343,3.2414,3.2415,3.2493,3.2443,0,0,0,0,0,0,0,0,0,0,3.2376,3.2343,3.2313,3.2314,3.2344,3.2414,3.2415,3.2441,3.2447,3.2455,0,3.2462,0,3.2479,3.2498,3.2498,0,0,0,3.2348,3.2338,3.2365,3.2314,3.2344,3.2414,3.2384,3.2444,3.245,3.2462,3.2463,3.2466,3.248,3.2499,3.2499,3.2535,3.2535,0,0,3.2344,3.2322,3.236,3.2368,3.2357,3.2381,3.2386,3.2448,3.2447,3.2463,3.2468,3.2482,3.2499,3.25,3.2535,3.2535,0,0,0,3.233,3.2319,3.2344,3.2364,3.2378,3.2383,3.2389,3.2445,3.2455,3.2469,3.2483,3.2499,3.25,3.2535,3.2535,3.251,0,0,0,3.2327,3.231,3.2342,3.2329,3.2377,3.2413,3.2383,3.245,3.2458,3.2482,3.2499,3.2501,3.2535,3.2535,3.2511,3.2502,0,0,0,3.2311,3.2308,3.2316,3.2327,3.2357,3.2412,3.2426,3.2452,3.2466,3.2498,3.2501,3.2536,3.2535,3.2512,3.2504,3.2506,0,0,0,3.2287,3.2292,3.2316,3.2327,3.2357,3.2396,3.2426,3.2456,3.2481,3.25,3.2535,3.2535,3.2512,3.2504,3.2506,3.2503,3.25,0,0,3.2281,3.2291,3.23,3.2323,3.2353,3.2387,3.2414,3.2457,3.248,3.2515,3.2517,3.2511,3.2504,3.2506,3.2489,3.2486,0,0,0,3.229,3.2296,3.2309,3.2333,3.2367,3.2396,3.2438,3.2454,3.2485,3.2494,3.2513,3.2509,3.2511,3.2511,3.2509,3.2512,3.2534,3.2534,3.2534,3.2249,3.228,3.2297,3.2336,3.2358,3.2403,3.2423,3.2453,3.2476,3.248,3.249,3.2477,3.2475,3.2474,3.2477,3.2491,3.2491,3.2491,3.2491,3.2244,3.2258,3.229,3.2318,3.235,3.2373,3.2416,3.2432,3.2458,3.2471,3.2474,3.2486,3.247,3.2474,3.249,3.249,3.249,3.249,3.249,3.2221,3.2233,3.2254,3.2292,3.2317,3.2357,3.2381,3.2409,3.2435,3.2439,3.2453,3.2454,3.2458,3.2444,3.2444,3.2444,3.2444,3.2444,3.2444,3.2189,3.2213,3.223,3.2268,3.2288,3.2317,3.2362,3.2381,3.241,3.2429,3.2429,3.2452,3.2463,3.2465,3.2443,3.2443,3.2443,3.2443,3.2443,3.2172,3.2181,3.2207,3.2227,3.2274,3.2298,3.2334,3.2372,3.2392,3.2403,3.2426,3.2429,3.2441,3.2443,3.2445,3.2419,3.2419,3.2419,3.2419,3.2152,3.2161,3.2195,3.2225,3.2257,3.2293,3.2322,3.2357,3.2395,3.2409,3.2417,3.2422,3.2423,3.2434,3.2437,3.2439,3.2412,3.2412,3.2412,3.2144,3.2157,3.2177,3.2215,3.2255,3.2288,3.2316,3.2348,3.2392,3.2413,3.2421,3.2422,3.243,3.2431,3.2451,3.2454,3.2458,0,0]}]]